Probability
0 0 0 0 0 0 0 0 0 0 0 0 0 0 0 0 0 0 0 0 0 0 0 0 0 0 0 0 0 0 0 0 3 3 3 3 6 10
0 0 0 0 0 0 0 0 0 0 0 0 0 0 0 0 0 0 0 0 0 0 0 0 0 0 0 0 0 0 0 0 3 0 3 3 6 6
0 0 0 0 0 0 0 0 0 0 0 0 0 0 0 0 0 0 0 0 0 0 0 0 0 0 0 0 0 0 0 0 0 0 3 3 3 3
0 0 0 0 0 0 0 0 0 0 0 0 0 0 0 0 0 0 0 0 0 0 0 0 0 0 0 0 0 0 0 0 0 0 0 0 3 3
0 0 0 0 0 0 0 0 0 0 0 0 0 0 0 0 0 0 0 0 0 0 0 0 0 0 0 0 0 0 0 0 0 0 0 0 0 0
0 0 0 0 0 0 0 0 0 0 0 0 0 0 0 0 0 0 0 0 0 0 0 0 0 0 0 0 0 0 0 0 0 0 0 0 0 0
0 0 0 0 0 0 0 0 0 0 0 0 0 0 0 0 0 0 0 0 0 0 0 0 0 0 0 0 0 0 0 0 0 0 0 0 0 0
0 0 0 0 0 0 0 0 0 0 0 0 0 0 0 0 0 0 0 0 0 0 0 0 0 0 0 0 0 0 0 0 0 0 0 0 0 0
0 0 0 0 0 0 0 0 0 0 0 0 0 0 0 0 0 0 0 0 0 0 0 0 0 0 0 0 0 0 0 0 0 0 0 0 0 0
0 0 0 0 0 0 0 0 0 0 0 0 0 0 0 0 0 0 0 0 0 0 0 0 0 0 0 0 0 0 0 0 0 0 0 0 0 0
0 0 0 0 0 0 0 0 0 0 0 0 0 0 0 0 0 0 0 0 0 0 0 0 0 0 0 0 0 0 0 0 0 0 0 0 0 0
0 0 0 0 0 0 0 0 0 0 0 0 0 0 0 0 0 0 0 0 0 0 0 0 0 0 0 0 0 0 0 0 0 0 0 0 0 0
0 0 0 0 0 0 0 0 0 0 0 0 0 0 0 0 0 0 0 0 0 0 0 0 0 0 0 0 0 0 0 0 0 0 0 0 0 0
0 0 0 0 0 0 0 0 0 0 0 0 0 0 0 0 0 0 0 0 0 0 0 0 0 0 0 0 0 0 0 0 0 0 0 0 0 0
0 0 0 0 0 0 0 0 0 0 0 0 0 0 0 0 0 0 0 0 0 0 0 0 0 0 0 0 0 0 0 0 0 0 0 0 0 0
0 0 0 0 0 0 0 0 0 0 0 0 0 0 0 0 0 0 0 0 0 0 0 0 0 0 0 0 0 0 0 0 0 0 0 0 0 0
0 0 0 0 0 0 0 0 0 0 0 0 0 0 0 0 0 0 0 0 0 0 0 0 0 0 0 0 0 0 0 0 0 0 0 0 0 0
0 0 0 0 0 0 0 0 0 0 0 0 0 0 0 0 0 0 0 0 0 0 0 0 0 0 0 0 0 0 0 0 0 0 0 0 0 0
0 0 0 0 0 0 0 0 0 0 0 0 0 0 0 0 0 0 0 0 0 0 0 0 0 0 0 0 0 0 0 0 0 0 0 0 0 0
0 0 0 0 0 0 0 0 0 0 0 0 0 0 0 0 0 0 0 0 0 0 0 0 0 0 0 0 0 0 0 0 0 0 0 0 0 0
0 0 0 0 0 0 0 0 0 0 0 0 0 0 0 0 0 0 0 0 0 0 0 0 0 0 0 0 0 0 0 0 0 0 0 0 0 0
0 0 0 0 0 0 0 0 0 0 0 0 0 0 0 0 0 0 0 0 0 0 0 0 0 0 0 0 0 0 0 0 0 0 0 0 0 0
0 0 0 0 0 0 0 0 0 0 0 0 0 0 0 0 0 0 0 0 0 0 0 0 0 0 0 0 0 0 0 0 0 0 0 0 0 0
Height
5818 5817 5816 5816 5815 5814 5813 5812 5812 5811 5810 5809 5808 5806 5805 5804 5803 5803 5802 5801 5800 5800 5799 5799 5798 5797 5797 5797 5796 5796 5795 5794 5794 5793 5793 5793 5793 5792
5813 5813 5812 5811 5810 5809 5809 5808 5807 5806 5805 5804 5803 5802 5801 5800 5799 5798 5797 5796 5796 5795 5794 5794 5793 5793 5792 5792 5791 5791 5790 5789 5789 5788 5788 5788 5788 5788
5809 5808 5807 5807 5806 5805 5804 5803 5802 5801 5800 5799 5798 5797 5796 5795 5794 5793 5792 5791 5791 5790 5789 5789 5788 5788 5787 5787 5786 5786 5785 5784 5784 5784 5784 5784 5783 5783
5804 5803 5802 5802 5801 5800 5799 5798 5797 5796 5795 5794 5793 5792 5791 5791 5790 5789 5788 5787 5786 5785 5784 5784 5783 5783 5782 5782 5781 5781 5780 5780 5779 5779 5779 5779 5778 5778
5798 5798 5797 5797 5796 5795 5794 5793 5792 5791 5790 5789 5788 5788 5787 5786 5785 5784 5783 5782 5781 5780 5780 5779 5778 5778 5777 5777 5776 5776 5775 5775 5774 5774 5774 5773 5773 5773
5793 5792 5792 5791 5790 5789 5788 5787 5787 5786 5785 5784 5783 5783 5782 5781 5780 5779 5779 5778 5777 5776 5775 5774 5773 5772 5772 5771 5771 5771 5770 5769 5769 5768 5768 5768 5768 5767
5787 5786 5786 5785 5785 5784 5783 5782 5781 5781 5780 5779 5778 5777 5777 5776 5775 5774 5773 5772 5772 5770 5770 5769 5768 5767 5766 5766 5765 5765 5765 5764 5763 5763 5762 5762 5762 5762
5781 5780 5780 5779 5779 5778 5777 5776 5776 5775 5774 5774 5773 5772 5772 5771 5770 5769 5768 5768 5767 5766 5764 5763 5762 5762 5761 5760 5760 5760 5759 5758 5758 5757 5756 5756 5756 5756
5775 5774 5774 5773 5772 5772 5771 5771 5770 5769 5769 5768 5767 5767 5766 5765 5765 5764 5763 5762 5761 5760 5759 5758 5757 5756 5755 5755 5754 5754 5754 5753 5753 5752 5751 5750 5750 5750
5768 5767 5767 5767 5766 5766 5765 5765 5764 5763 5763 5762 5762 5761 5760 5759 5758 5758 5757 5756 5755 5754 5753 5753 5751 5751 5750 5749 5749 5748 5747 5747 5746 5745 5744 5744 5743 5743
5760 5760 5760 5760 5759 5759 5759 5759 5758 5757 5756 5756 5755 5754 5754 5753 5752 5751 5750 5750 5749 5748 5747 5747 5746 5745 5744 5743 5742 5741 5740 5740 5739 5738 5737 5737 5736 5736
5753 5753 5752 5752 5752 5751 5751 5751 5751 5750 5750 5749 5748 5748 5747 5746 5746 5745 5744 5743 5742 5742 5741 5740 5739 5738 5738 5737 5736 5735 5734 5733 5732 5731 5730 5730 5729 5729
5746 5745 5745 5744 5744 5744 5743 5744 5743 5743 5743 5742 5741 5741 5740 5739 5739 5738 5737 5736 5735 5735 5734 5733 5732 5731 5731 5730 5729 5728 5727 5726 5726 5724 5723 5722 5722 5721
5738 5738 5737 5736 5736 5736 5736 5736 5735 5735 5735 5734 5734 5733 5732 5732 5731 5730 5729 5728 5727 5727 5726 5726 5725 5724 5724 5723 5722 5721 5720 5719 5718 5717 5716 5715 5714 5713
5730 5729 5729 5728 5727 5727 5727 5727 5727 5727 5727 5726 5726 5725 5725 5724 5723 5722 5721 5720 5719 5719 5718 5717 5717 5716 5716 5715 5715 5714 5713 5712 5711 5710 5709 5707 5706 5705
5721 5720 5720 5719 5719 5719 5718 5718 5718 5718 5718 5718 5717 5717 5716 5716 5715 5714 5713 5712 5711 5711 5710 5709 5708 5708 5708 5707 5706 5706 5705 5704 5702 5701 5700 5699 5697 5696
5712 5711 5711 5710 5710 5709 5709 5709 5708 5708 5708 5708 5708 5707 5707 5707 5706 5705 5704 5704 5703 5702 5701 5701 5700 5700 5699 5699 5698 5697 5696 5695 5694 5692 5691 5690 5689 5687
5703 5702 5702 5701 5700 5700 5699 5699 5699 5698 5698 5698 5698 5697 5697 5697 5696 5696 5695 5695 5694 5694 5693 5692 5691 5691 5691 5690 5689 5688 5687 5686 5685 5683 5682 5681 5680 5678
5694 5693 5692 5691 5691 5690 5689 5689 5688 5688 5687 5687 5687 5687 5687 5686 5686 5685 5685 5685 5685 5684 5683 5682 5682 5681 5681 5681 5680 5678 5677 5676 5675 5673 5672 5671 5670 5668
5684 5683 5682 5682 5681 5680 5679 5678 5678 5677 5676 5676 5676 5676 5676 5675 5675 5674 5674 5674 5674 5674 5673 5672 5671 5671 5671 5670 5670 5669 5667 5665 5664 5663 5661 5660 5659 5657
5675 5674 5673 5672 5671 5670 5669 5668 5667 5666 5666 5665 5665 5665 5665 5664 5664 5664 5664 5663 5663 5663 5662 5662 5661 5660 5659 5659 5659 5658 5656 5654 5653 5651 5650 5649 5647 5646
5665 5664 5663 5662 5661 5660 5659 5658 5657 5656 5655 5654 5654 5654 5654 5654 5654 5654 5653 5653 5652 5652 5651 5651 5650 5648 5648 5648 5647 5647 5645 5643 5641 5640 5638 5637 5635 5634
5655 5654 5653 5652 5651 5650 5649 5648 5647 5646 5645 5644 5644 5644 5643 5643 5643 5643 5643 5642 5641 5641 5640 5640 5638 5637 5636 5636 5635 5634 5633 5632 5630 5628 5627 5625 5624 5623
Wind_Speed
16 15 15 15 15 15 15 15 15 14 15 16 16 16 16 16 16 16 15 16 16 16 16 16 16 16 16 16 16 16 16 16 16 17 17 17 16 16
17 17 16 16 16 16 16 16 16 16 16 16 16 15 16 16 15 15 15 15 15 15 15 16 16 17 17 17 17 17 18 18 17 17 16 16 15 15
18 17 16 16 16 17 17 17 17 17 17 16 15 15 16 16 16 16 15 16 16 16 16 17 17 17 17 17 17 17 17 17 17 17 16 16 16 17
17 17 16 16 17 18 18 17 17 17 17 16 16 16 16 16 16 16 16 16 16 16 16 17 17 17 17 17 17 17 17 16 16 17 17 17 18 18
18 17 17 17 17 17 17 17 17 17 17 16 16 16 16 16 16 16 16 16 15 16 16 16 17 17 17 17 17 18 18 18 18 18 18 18 18 19
19 19 18 18 17 17 17 17 17 17 17 17 16 17 17 17 17 16 16 16 15 16 16 17 17 17 17 18 18 18 19 19 18 18 19 18 18 18
19 19 18 18 18 17 18 18 18 18 18 18 18 17 17 17 17 17 16 16 16 17 17 18 18 18 18 19 19 19 19 19 19 18 18 19 19 18
19 19 19 19 19 18 18 18 18 18 18 18 18 18 18 18 17 17 17 17 17 18 18 18 18 19 19 19 19 19 19 19 19 19 18 18 19 19
20 20 20 20 20 19 19 19 18 18 18 18 19 19 19 19 19 19 19 19 18 18 18 18 18 18 19 19 19 19 20 20 19 19 19 19 20 20
22 22 21 21 20 19 19 19 19 19 19 19 19 20 20 20 20 20 19 20 20 20 19 18 18 19 19 19 20 20 21 21 21 21 20 20 20 20
23 23 22 22 21 21 21 21 20 20 21 20 20 20 20 20 20 21 20 20 20 20 20 20 19 20 20 20 21 21 22 22 22 22 22 22 21 21
23 23 23 23 23 23 22 22 22 22 22 22 22 22 22 22 22 22 21 20 20 21 21 21 21 21 21 21 21 21 22 22 22 22 22 22 22 23
23 23 23 23 23 23 23 23 23 23 23 23 23 24 24 24 23 23 23 22 22 22 22 22 22 22 22 21 21 21 21 22 22 22 23 23 24 24
24 25 25 25 24 24 24 24 24 24 24 24 25 25 25 26 25 25 24 24 24 23 23 24 23 23 22 22 22 22 22 22 23 23 23 24 25 25
26 27 27 26 26 26 26 26 26 26 25 25 25 25 25 25 25 25 25 25 25 25 25 25 24 24 24 24 24 24 24 24 24 24 25 26 26 26
27 28 28 27 27 27 27 26 26 26 26 26 26 26 26 25 25 25 25 25 25 25 26 25 25 25 25 25 25 25 26 26 26 26 26 27 27 27
27 28 28 28 28 28 27 27 28 28 28 27 28 28 28 27 27 27 26 26 26 25 26 26 26 26 26 26 26 26 27 27 28 28 27 27 28 28
27 27 27 27 28 28 28 29 29 30 30 30 30 31 30 30 29 29 28 28 27 27 27 27 28 27 27 26 27 28 28 29 30 29 29 29 29 30
27 27 27 28 28 28 29 29 30 30 30 30 31 31 32 32 31 31 30 30 29 29 29 29 29 29 29 29 29 30 30 30 30 31 31 31 31 32
28 28 28 28 28 29 29 29 30 30 31 31 31 31 31 32 32 31 31 31 31 31 31 31 31 31 30 30 30 31 31 31 32 32 32 32 32 32
28 28 29 29 29 29 30 29 29 30 31 31 32 31 31 32 31 31 31 31 31 31 31 31 32 32 32 32 30 30 31 33 33 33 33 33 32 32
28 29 29 29 29 29 29 29 29 30 30 31 31 31 31 31 30 30 30 31 31 31 31 31 32 33 33 32 32 31 32 34 34 34 34 33 33 32
28 29 28 28 28 28 28 28 28 29 29 29 29 30 30 31 31 31 31 32 32 32 32 32 33 33 34 34 34 34 34 35 35 35 34 34 34 34
Wind_Direction
282 282 282 282 284 285 285 283 284 285 285 284 283 284 284 283 280 279 279 278 278 275 275 275 274 272 270 270 269 267 268 269 268 267 269 265 265 267
281 280 281 282 283 283 283 283 283 284 285 285 283 283 283 283 282 279 279 278 276 274 274 274 273 273 271 271 271 269 268 267 268 268 267 266 269 270
281 280 280 283 283 283 283 283 282 283 284 283 281 280 282 282 279 279 280 280 277 276 273 273 272 272 272 273 273 273 272 269 269 268 264 267 270 269
282 281 281 282 283 284 282 282 282 282 283 282 280 279 281 283 282 280 280 280 278 275 273 272 273 273 274 273 273 272 272 270 271 268 266 267 269 268
279 280 280 281 283 284 280 279 280 282 281 279 279 281 281 282 281 280 280 281 279 276 274 273 274 274 273 273 273 271 271 270 269 270 270 269 269 269
278 278 278 280 281 282 281 279 278 278 278 278 279 280 280 280 280 280 280 281 280 278 277 275 274 274 272 272 272 272 272 271 270 270 269 269 270 269
278 277 277 278 279 280 279 278 277 277 277 277 278 279 279 279 280 281 280 280 279 279 280 278 277 275 271 271 272 273 272 274 273 271 268 268 269 270
276 278 276 276 277 278 278 276 276 276 277 277 277 276 277 278 278 280 279 279 280 279 279 279 278 274 270 271 272 273 273 275 274 270 267 265 266 267
274 274 274 275 277 277 275 275 275 276 276 275 274 276 276 275 277 278 277 276 277 280 280 280 278 275 272 272 273 273 275 275 276 273 268 265 264 265
272 272 272 272 273 273 272 273 273 274 274 273 274 275 276 276 276 277 276 274 275 276 277 279 279 277 277 275 274 274 275 275 276 275 269 264 262 264
271 270 270 271 270 272 271 271 271 271 272 273 275 276 276 277 277 277 275 274 274 275 276 276 278 278 277 276 274 274 275 276 276 275 275 272 267 265
273 272 271 271 270 271 272 271 270 271 271 272 273 275 276 277 277 277 276 275 275 274 275 276 277 277 275 274 274 274 274 276 277 276 275 273 272 270
274 273 271 271 271 271 272 271 270 270 271 271 272 274 275 276 276 275 275 274 275 274 274 275 277 277 276 274 273 273 274 275 276 275 275 276 276 275
272 273 272 272 273 272 271 270 270 270 272 272 273 274 275 275 276 274 273 273 273 273 273 274 276 275 275 274 273 273 275 276 277 277 276 276 276 277
273 273 273 273 273 271 269 268 269 271 272 272 272 272 274 275 275 275 274 274 273 274 274 274 273 273 274 274 274 275 277 278 278 277 277 278 278 277
275 275 274 273 273 271 271 270 270 270 271 270 271 270 272 273 274 276 276 275 275 274 274 272 272 272 273 274 275 276 277 278 279 279 279 279 280 280
276 276 275 273 273 272 271 270 270 271 272 271 270 270 271 272 273 275 275 275 274 274 273 273 272 271 272 274 275 276 276 277 279 280 280 281 281 281
278 277 276 275 274 272 270 271 271 271 271 270 270 269 270 271 272 273 273 273 273 273 274 274 274 272 273 273 275 275 276 278 279 279 280 281 282 282
276 277 277 275 274 274 273 272 270 270 270 270 270 270 270 271 270 270 271 272 273 273 273 274 273 273 273 274 275 276 277 278 279 279 280 281 281 281
277 277 277 276 275 275 275 274 273 271 271 271 271 270 269 270 270 270 270 271 272 272 273 274 273 274 274 274 275 277 278 279 279 280 281 281 281 280
277 277 277 277 276 276 276 276 275 273 272 271 270 269 269 270 270 270 271 272 273 273 273 274 274 274 274 274 275 276 277 279 280 280 281 281 281 280
277 277 276 276 277 277 277 275 275 275 274 272 271 269 269 270 270 271 272 273 274 274 274 274 274 275 275 275 275 275 276 278 279 280 281 281 281 279
278 277 276 276 276 276 277 276 276 275 275 273 271 271 271 271 271 272 273 275 275 275 276 275 275 275 275 275 276 277 277 278 279 279 279 280 280 280